[[{"header":{"parameterUnit":"m.s-1","parameterCategory":1,"la1":30.2991,"la2":30.254,"lo1":-89.0895,"lo2":-89.0444,"dy":0.0017,"dx":0.0017,"nx":28,"ny":28,"refTime":"2024-02-06T09:00:00:Z","depth":0,"parameterNumber":2,"parameterNumberName":"U-component_of_WINDS"},"data":[0,0,0,0,0,0,0,0,0,0,0,0,0,0,0,0,0,0,0,0,0,0,0,0,0,0,0,0,0,0,0,0,0,0,0,0,0,0,0,0,0,0,0,0,0,0,0,0,0,0,0,0,0,0,0,0,0,0,-4.6596,-4.6598,0,-4.6744,-4.6746,-4.6747,-4.6685,-4.6681,-4.6678,-4.6674,-4.683,-4.6837,-4.6844,0,0,0,0,0,0,0,0,0,0,0,0,0,-4.6265,-4.6272,-4.6596,-4.6598,-4.66,-4.6744,-4.6746,-4.6748,-4.6685,-4.6681,-4.6677,-4.6673,-4.6827,-4.6836,-4.6845,0,0,0,0,0,0,0,0,0,0,0,0,0,-4.6411,-4.6274,-4.6596,-4.6586,-4.6587,-4.6743,-4.6746,-4.6748,-4.6686,-4.6681,-4.6676,-4.6671,-4.6824,-4.6835,-4.6846,-4.7022,0,0,-4.688,-4.6885,0,0,0,0,0,0,0,0,-4.6403,-4.6423,-4.6586,-4.6587,-4.6588,-4.669,-4.6686,-4.684,-4.6688,-4.6649,-4.6674,-4.6668,-4.6788,-4.6802,-4.6841,-4.703,-4.7036,-4.6881,-4.6888,-4.6893,-4.6896,0,0,0,0,0,0,0,-4.6393,-4.6416,-4.6655,-4.6588,-4.659,-4.6576,-4.6591,-4.6715,-4.6747,-4.6652,-4.6647,-4.6666,-4.6788,-4.6831,-4.6845,-4.7039,-4.6881,-4.6891,-4.6898,-4.6902,-4.7382,-4.7387,0,0,0,0,0,0,-4.6382,-4.6408,-4.665,-4.6659,-4.648,-4.6586,-4.6603,-4.6663,-4.6745,-4.6752,-4.667,-4.6662,-4.6814,-4.6832,-4.685,-4.7063,-4.6893,-4.6903,-4.691,-4.7376,-4.7383,-4.739,0,0,0,0,0,0,-4.6375,-4.6404,-4.6644,-4.6533,-4.6562,-4.6598,-4.6666,-4.6669,-4.6712,-4.6759,-4.6765,-4.6708,-4.6811,-4.6834,-4.698,-4.7067,-4.6908,-4.6919,-4.7369,-4.7378,-4.7386,-4.749,0,0,0,0,0,0,-4.6366,-4.6402,-4.6468,-4.6535,-4.6568,-4.6771,-4.6671,-4.6676,-4.6731,-4.6722,-4.6796,-4.6803,-4.6808,-4.6964,-4.6991,-4.708,-4.6927,-4.7361,-4.7373,-4.7383,-4.7479,-4.7502,-4.7521,0,0,0,0,0,-4.6354,-4.6492,-4.6472,-4.6501,-4.6652,-4.6776,-4.6795,-4.6797,-4.6738,-4.6806,-4.6836,-4.6801,-4.7053,-4.6979,-4.701,-4.7103,-4.7356,-4.737,-4.7383,-4.747,-4.7497,-4.752,0,0,0,0,0,0,-4.6435,-4.65,-4.6479,-4.6641,-4.6704,-4.6765,-4.685,-4.6826,-4.6907,-4.6896,-4.6896,-4.6913,-4.7065,-4.7098,-4.7015,-4.7279,-4.7196,-4.7216,-4.7252,-4.7278,-4.7298,-4.7288,-4.6937,0,0,0,0,0,-4.6472,-4.6566,-4.6618,-4.6757,-4.6789,-4.6815,-4.6869,-4.6865,-4.693,-4.6956,-4.6997,-4.7063,-4.7157,-4.7219,-4.7309,-4.7484,-4.75,-4.7563,-4.7584,-4.7601,-4.7619,-4.7716,-4.7745,-4.7434,-4.7434,-4.7434,0,0,-4.6549,-4.6596,-4.6656,-4.6775,-4.6822,-4.6922,-4.6837,-4.6945,-4.702,-4.6973,-4.7114,-4.7147,-4.722,-4.7382,-4.7455,-4.7415,-4.7708,-4.7618,-4.7631,-4.764,-4.7733,-4.7762,-4.7788,-4.7443,-4.7442,-4.744,0,0,-4.674,-4.6785,-4.6906,-4.6955,-4.7028,-4.7045,-4.7074,-4.714,-4.716,-4.7301,-4.7268,-4.7357,-4.7519,-4.7573,-4.7622,-4.7836,-4.7808,-4.7865,-4.7975,-4.8069,-4.8094,-4.8116,-4.8194,-4.8221,-4.7883,-4.7883,-4.7883,0,-4.6827,-4.6974,-4.6972,-4.7083,-4.7137,-4.7099,-4.7223,-4.7272,-4.7371,-4.741,-4.7363,-4.7566,-4.7613,-4.7788,-4.784,-4.7881,-4.7916,-4.7857,-4.809,-4.8112,-4.8132,-4.8207,-4.8236,-4.789,-4.7889,-4.7888,-4.7888,0,-4.7078,-4.718,-4.727,-4.7366,-4.743,-4.7547,-4.7565,-4.7631,-4.7622,-4.7644,-4.7789,-4.7844,-4.7944,-4.7985,-4.7978,-4.8161,-4.8133,-4.8089,-4.8005,-4.8169,-4.8239,-4.8267,-4.7899,-4.7897,-4.7895,-4.7893,0,0,-4.7323,-4.7417,-4.745,-4.7494,-4.7573,-4.7653,-4.777,-4.7867,-4.7924,-4.7994,-4.8093,-4.8232,-4.8192,-4.8247,-4.8246,-4.8329,-4.8497,-4.8274,-4.8276,-4.8315,-4.8704,-4.8737,-4.877,-4.8478,-4.8484,-4.8488,-4.8698,0,-4.7521,-4.7724,-4.7726,-4.7914,-4.801,-4.7976,-4.8077,-4.8138,-4.8162,-4.8248,-4.8276,-4.8374,-4.8313,-4.8346,-4.8427,-4.8459,-4.8575,-4.8444,-4.8572,-4.8577,-4.8556,-4.8806,-4.8842,-4.9037,-4.8725,-4.873,-4.8733,0,-4.7779,-4.7857,-4.8053,-4.812,-4.816,-4.8251,-4.8342,-4.8424,-4.8493,-4.8505,-4.8568,-4.8555,-4.8676,-4.8588,-4.8756,-4.8667,-4.872,-4.8744,-4.8752,-4.8764,-4.8665,-4.8827,-4.91,-4.9129,-4.8776,-4.8772,-4.8769,0,-4.794,-4.8094,-4.8232,-4.827,-4.8351,-4.8416,-4.8453,-4.8517,-4.8576,-4.8655,-4.8694,-4.8787,-4.8839,-4.8912,-4.8925,-4.886,-4.9095,-4.9007,-4.911,-4.911,-4.9161,-4.9158,-4.9447,-4.9194,-4.9193,-4.9193,-4.9192,0,-4.8161,-4.8283,-4.8305,-4.8391,-4.8527,-4.853,-4.8665,-4.8697,-4.8754,-4.8847,-4.8823,-4.8911,-4.8922,-4.9013,-4.9024,-4.9163,-4.9186,-4.9201,-4.9202,-4.9203,-4.9202,-4.9238,-4.9225,-4.9201,-4.9199,-4.9197,-4.9196,0,-4.8363,-4.8383,-4.8532,-4.8596,-4.8615,-4.8713,-4.8769,-4.8852,-4.8874,-4.8991,-4.9019,-4.9054,-4.916,-4.918,-4.9306,-4.9313,-4.9479,-4.9467,-4.9456,-4.9455,-4.9556,-4.9547,-4.988,-4.9924,-4.9641,-4.9644,-4.9646,0,-4.8503,-4.8596,-4.8671,-4.873,-4.877,-4.8867,-4.8927,-4.8934,-4.8998,-4.9084,-4.9157,-4.926,-4.9343,-4.9515,-4.9553,-4.965,-4.964,-4.975,-4.9655,-4.9653,-4.9644,-4.9638,-4.9648,-4.9769,-4.9772,-4.9774,-4.9776,0,-4.875,-4.8756,-4.8842,-4.8934,-4.9006,-4.9079,-4.9147,-4.9198,-4.9215,-4.9288,-4.9396,-4.946,-4.9589,-4.9693,-4.9789,-4.9829,-4.9807,-4.9806,-4.9835,-4.9837,-4.9828,-4.9836,-4.9507,-4.9799,-4.9796,-4.9795,-4.9794,-4.9793,-4.8927,-4.9008,-4.9074,-4.9172,-4.9224,-4.929,-4.9371,-4.9403,-4.9493,-4.9597,-4.9596,-4.9715,-4.9784,-4.9911,-4.9957,-5.0052,-5.0017,-5.0059,-5.0069,-5.008,-5.009,-4.9812,-5.0069,-5.0069,-5.0068,-5.0068,-5.0067,0,-4.9173,-4.9214,-4.9304,-4.9401,-4.9479,-4.945,-4.9525,-4.9593,-4.9697,-4.9762,-4.9845,-4.997,-5.0071,-5.0117,-5.0218,-5.0284,-5.0277,-5.0311,-5.0306,-5.0316,-5.0114,-5.008,-5.0315,-5.0315,-5.0315,-5.0315,-5.0315,-5.0315,-4.931,-4.9448,-4.9462,-4.9626,-4.9666,-4.9781,-4.9827,-4.9888,-4.994,-5.008,-5.0164,-5.0193,-5.0252,-5.0357,-5.0449,-5.046,-5.0499,-5.0538,-5.0545,-5.0355,-5.033,-5.0306,-5.0274,-5.0546,-5.0546,-5.0739,-5.074,-5.0742]},{"header":{"parameterUnit":"m.s-1","parameterCategory":1,"la1":30.2991,"la2":30.254,"lo1":-89.0895,"lo2":-89.0444,"dy":0.0017,"dx":0.0017,"nx":28,"ny":28,"refTime":"2024-02-06T09:00:00:Z","depth":0,"parameterNumber":3,"parameterNumberName":"V-component_of_WINDS"},"data":[0,0,0,0,0,0,0,0,0,0,0,0,0,0,0,0,0,0,0,0,0,0,0,0,0,0,0,0,0,0,0,0,0,0,0,0,0,0,0,0,0,0,0,0,0,0,0,0,0,0,0,0,0,0,0,0,0,0,0.5945,0.5946,0,0.6023,0.6024,0.6025,0.606,0.606,0.606,0.606,0.6139,0.6141,0.6143,0,0,0,0,0,0,0,0,0,0,0,0,0,0.5828,0.583,0.5945,0.5946,0.5947,0.6023,0.6024,0.6025,0.606,0.606,0.606,0.606,0.6138,0.614,0.6143,0,0,0,0,0,0,0,0,0,0,0,0,0,0.5889,0.583,0.5945,0.5974,0.5977,0.6022,0.6024,0.6025,0.606,0.606,0.606,0.606,0.6137,0.614,0.6143,0.6166,0,0,0.6153,0.6155,0,0,0,0,0,0,0,0,0.5886,0.5893,0.5968,0.5972,0.5976,0.6032,0.6011,0.6072,0.606,0.6028,0.606,0.606,0.6103,0.6109,0.6124,0.6169,0.6173,0.6154,0.6155,0.6157,0.6158,0,0,0,0,0,0,0,0.5881,0.589,0.5976,0.5969,0.5974,0.5983,0.5992,0.6023,0.6065,0.6031,0.6034,0.6043,0.6105,0.6121,0.6126,0.6174,0.6153,0.6156,0.6158,0.616,0.6243,0.6243,0,0,0,0,0,0,0.5872,0.5887,0.5973,0.5978,0.5929,0.5985,0.5995,0.6014,0.6065,0.6073,0.6043,0.6044,0.6115,0.6122,0.6129,0.6159,0.6157,0.616,0.6162,0.6243,0.6243,0.6243,0,0,0,0,0,0,0.587,0.588,0.597,0.5933,0.5945,0.5987,0.6008,0.6015,0.6031,0.6074,0.6082,0.6051,0.6115,0.6124,0.6157,0.6163,0.6161,0.6164,0.6242,0.6243,0.6243,0.622,0,0,0,0,0,0,0.5866,0.5879,0.5887,0.5933,0.5947,0.5996,0.6009,0.6017,0.6037,0.6039,0.6084,0.6091,0.6116,0.6152,0.616,0.6167,0.6167,0.6242,0.6243,0.6243,0.622,0.6219,0.6219,0,0,0,0,0,0.5862,0.5877,0.5887,0.5898,0.5959,0.5997,0.6005,0.6033,0.6037,0.6046,0.6074,0.6089,0.616,0.6155,0.6164,0.6172,0.6242,0.6242,0.6243,0.6221,0.622,0.6219,0,0,0,0,0,0,0.583,0.5883,0.5896,0.5926,0.5957,0.6003,0.6015,0.6031,0.6061,0.6062,0.6096,0.6106,0.6136,0.6157,0.615,0.6197,0.6203,0.6205,0.6182,0.6182,0.6181,0.6175,0.617,0,0,0,0,0,0.5827,0.5853,0.5898,0.5921,0.5936,0.5973,0.599,0.601,0.6043,0.6056,0.6086,0.6117,0.6147,0.6165,0.6195,0.6224,0.6234,0.6234,0.6233,0.6232,0.6234,0.6252,0.6253,0.6245,0.6245,0.6245,0,0,0.582,0.5852,0.5867,0.5915,0.5941,0.5968,0.5983,0.601,0.6031,0.606,0.6093,0.6116,0.6153,0.6184,0.6199,0.6203,0.6239,0.6233,0.6232,0.6235,0.6253,0.6254,0.6254,0.6246,0.6246,0.6246,0,0,0.5822,0.5848,0.5871,0.5897,0.5936,0.5961,0.5966,0.601,0.6027,0.6061,0.6083,0.6108,0.6158,0.6184,0.6203,0.6216,0.6232,0.6225,0.6221,0.6238,0.6238,0.6239,0.6245,0.6246,0.6226,0.6226,0.6226,0,0.5808,0.5849,0.588,0.5907,0.5928,0.5956,0.5979,0.6003,0.605,0.6064,0.6067,0.6132,0.6158,0.6197,0.62,0.6215,0.6222,0.622,0.6236,0.6237,0.6238,0.6244,0.6246,0.6225,0.6225,0.6226,0.6226,0,0.5831,0.586,0.5873,0.5919,0.5941,0.5966,0.6001,0.602,0.6038,0.6062,0.6097,0.613,0.6168,0.6178,0.6195,0.6219,0.622,0.6229,0.6235,0.6237,0.6243,0.6246,0.6224,0.6224,0.6225,0.6225,0,0,0.5814,0.5878,0.5882,0.5904,0.595,0.5972,0.5999,0.6036,0.6052,0.6084,0.6107,0.6149,0.6159,0.6181,0.6202,0.6217,0.6226,0.6225,0.6226,0.6224,0.6256,0.6249,0.6251,0.6237,0.6237,0.6238,0.6253,0,0.5823,0.5872,0.5901,0.5938,0.5965,0.5993,0.6016,0.6047,0.6071,0.6098,0.6124,0.6154,0.6163,0.6177,0.6193,0.6222,0.6233,0.6221,0.6259,0.626,0.625,0.6254,0.6246,0.6259,0.6255,0.6256,0.6256,0,0.5839,0.5871,0.5911,0.5956,0.5968,0.5988,0.6026,0.6051,0.6087,0.6103,0.6129,0.615,0.6179,0.6183,0.6224,0.6215,0.6233,0.6249,0.625,0.6255,0.6258,0.626,0.6264,0.6266,0.626,0.6259,0.6259,0,0.5824,0.5877,0.5908,0.5926,0.5978,0.5992,0.6014,0.605,0.6071,0.6104,0.6118,0.6153,0.6172,0.6199,0.6229,0.6228,0.6268,0.6273,0.6283,0.6282,0.629,0.6289,0.6297,0.63,0.63,0.63,0.63,0,0.5831,0.5854,0.5902,0.5921,0.5949,0.5982,0.6009,0.6034,0.6066,0.609,0.6116,0.6139,0.6177,0.6205,0.6228,0.626,0.6268,0.6282,0.6288,0.628,0.6279,0.6293,0.6293,0.63,0.63,0.63,0.63,0,0.5818,0.5851,0.5887,0.5934,0.5947,0.5965,0.6006,0.6026,0.6051,0.6082,0.6092,0.6132,0.6166,0.6199,0.6243,0.626,0.6291,0.6299,0.6279,0.6283,0.629,0.6289,0.6308,0.6313,0.6311,0.6311,0.6311,0,0.582,0.584,0.5889,0.5908,0.593,0.596,0.5982,0.6015,0.6037,0.6081,0.6095,0.6131,0.6162,0.6215,0.6248,0.6283,0.6292,0.6296,0.6298,0.6289,0.6293,0.6292,0.6295,0.6296,0.6295,0.6295,0.6295,0,0.5821,0.5837,0.5868,0.5905,0.593,0.5961,0.5992,0.6006,0.6046,0.6069,0.6104,0.6128,0.6175,0.6211,0.625,0.6273,0.6291,0.6295,0.6299,0.6291,0.6279,0.6287,0.6278,0.6294,0.6294,0.6294,0.6294,0.6294,0.5817,0.5836,0.5874,0.5908,0.5935,0.5964,0.5986,0.6015,0.6045,0.6086,0.6104,0.614,0.6177,0.6231,0.6255,0.6283,0.6288,0.6293,0.6295,0.6296,0.6295,0.6274,0.629,0.629,0.629,0.6291,0.6291,0,0.582,0.5846,0.5877,0.5921,0.5947,0.5963,0.5998,0.602,0.6051,0.6084,0.6114,0.6156,0.6191,0.6227,0.6264,0.628,0.629,0.6289,0.6288,0.6294,0.6288,0.6281,0.6281,0.6281,0.6281,0.6281,0.6281,0.6281,0.5825,0.5858,0.5878,0.5925,0.5952,0.5988,0.6007,0.6034,0.6061,0.6106,0.6135,0.6159,0.6194,0.6234,0.6267,0.6277,0.629,0.6287,0.6299,0.6293,0.6294,0.6294,0.6288,0.6289,0.6289,0.6302,0.6302,0.6302]}]]